Santa Fe, NM

4:57 PM MDT on March 24, 2017 (GMT -0600)
Santa Fe Municipal

Weather History for KSAF - October, 2013

Change the Weather History Date:

Saturday, October 26, 2013

  Actual Average Record
Temperature  
Mean Temperature 52 °F -  
Max Temperature 62 °F 61 °F 77 °F (2007)
Min Temperature 43 °F 28 °F 21 °F (1997)
Degree Days  
Heating Degree Days 13    
Growing Degree Days 2 (Base 50)    
Moisture  
Dew Point 39 °F    
Average Humidity 67    
Maximum Humidity 89    
Minimum Humidity 36    
Precipitation  
Precipitation 0.00 in - - ()
Sea Level Pressure  
Sea Level Pressure 30.18 in    
Wind  
Wind Speed 8 mph (NNE)    
Max Wind Speed 17 mph    
Max Gust Speed -    
Visibility 10 miles    
Events      
Averages and records for this station are not official NWS values.
T = Trace of Precipitation, MM = Missing Value Source: NWS Daily Summary

Daily Weather History Graph

Daily Weather History Graph

Search for Another Location

Airport or City:

Trip Planner

Search our weather history database for the weather conditions in past years. The results will help you decide how hot, cold, wet, or windy it might be!

Date:

Astronomy

Oct. 26, 2013 Rise Set
Actual Time 7:20 AM MDT 6:15 PM MDT
Civil Twilight 6:54 AM MDT 6:41 PM MDT
Nautical Twilight 6:24 AM MDT 7:11 PM MDT
Astronomical Twilight 5:55 AM MDT 7:40 PM MDT
Moon No Moon Rise 1:36 PM MDT (10/26)
Length of Visible Light 11h 46m
Length of Day
10h 54m
Waning Gibbous, 52% of the Moon is Illuminated
Oct 26
Waning Gibbous
Oct 26
Last Quarter
Nov 3
New
Nov 9
First Quarter
Nov 17
Full

Hourly Weather History & Observations

Time (MDT) Temp. Windchill Dew Point Humidity Pressure Visibility Wind Dir Wind Speed Gust Speed Precip Events Conditions
12:53 AM 44.1 °F 40.1 °F 39.9 °F 85% 30.12 in 10.0 mi North 6.9 mph - N/A   Clear
1:53 AM 43.0 °F 39.5 °F 39.9 °F 89% 30.12 in 10.0 mi NW 5.8 mph - N/A   Clear
2:53 AM 44.1 °F 40.1 °F 39.9 °F 85% 30.12 in 10.0 mi North 6.9 mph - N/A   Mostly Cloudy
3:53 AM 43.0 °F 36.8 °F 39.9 °F 89% 30.12 in 10.0 mi North 11.5 mph - N/A   Clear
4:53 AM 45.0 °F 40.1 °F 39.9 °F 82% 30.13 in 10.0 mi North 9.2 mph - N/A   Overcast
5:53 AM 44.1 °F 39.5 °F 39.9 °F 85% 30.14 in 10.0 mi North 8.1 mph - N/A   Overcast
6:53 AM 43.0 °F 39.5 °F 39.9 °F 89% 30.17 in 10.0 mi North 5.8 mph - N/A   Overcast
7:53 AM 43.0 °F 37.7 °F 39.9 °F 89% 30.21 in 10.0 mi North 9.2 mph - N/A   Overcast
8:53 AM 43.0 °F 37.2 °F 39.9 °F 89% 30.24 in 10.0 mi North 10.4 mph - N/A   Mostly Cloudy
9:53 AM 50.0 °F - 41.0 °F 71% 30.23 in 10.0 mi North 15.0 mph - N/A   Clear
10:53 AM 52.0 °F - 41.0 °F 66% 30.22 in 10.0 mi North 17.3 mph - N/A   Clear
11:53 AM 55.0 °F - 42.1 °F 62% 30.22 in 10.0 mi North 15.0 mph - N/A   Clear
12:53 PM 57.9 °F - 42.1 °F 56% 30.20 in 10.0 mi NNE 4.6 mph - N/A   Clear
1:53 PM 59.0 °F - 39.9 °F 49% 30.18 in 10.0 mi NW 6.9 mph - N/A   Clear
2:53 PM 61.0 °F - 35.1 °F 38% 30.15 in 10.0 mi NNE 4.6 mph - N/A   Clear
3:53 PM 61.0 °F - 35.1 °F 38% 30.15 in 10.0 mi NNW 5.8 mph - N/A   Clear
4:53 PM 61.0 °F - 34.0 °F 36% 30.14 in 10.0 mi Calm Calm - N/A   Clear
5:53 PM 57.9 °F - 37.0 °F 46% 30.16 in 10.0 mi SW 4.6 mph - N/A   Clear
6:53 PM 55.0 °F - 36.0 °F 49% 30.19 in 10.0 mi Calm Calm - N/A   Clear
7:53 PM 52.0 °F - 39.9 °F 63% 30.22 in 10.0 mi SSE 6.9 mph - N/A   Mostly Cloudy
8:53 PM 50.0 °F - 37.9 °F 63% 30.23 in 10.0 mi SSE 6.9 mph - N/A   Clear
9:53 PM 46.9 °F - 36.0 °F 66% 30.22 in 10.0 mi SE 4.6 mph - N/A   Clear
10:53 PM 46.0 °F 42.5 °F 36.0 °F 68% 30.22 in 10.0 mi ESE 6.9 mph - N/A   Clear
11:53 PM 45.0 °F 42.6 °F 34.0 °F 65% 30.19 in 10.0 mi East 4.6 mph - N/A   Clear